Year,Month,Day,Hour,Minute,Value (Times are PST for temperature in C)
2010,07,11,00,00,15.90
2010,07,11,00,01,15.80
2010,07,11,00,02,15.80
2010,07,11,00,03,15.70
2010,07,11,00,04,15.70
2010,07,11,00,05,15.70
2010,07,11,00,06,15.70
2010,07,11,00,07,15.60
2010,07,11,00,08,15.60
2010,07,11,00,09,15.60
2010,07,11,00,10,15.60
2010,07,11,00,11,15.60
2010,07,11,00,12,15.60
2010,07,11,00,13,15.50
2010,07,11,00,14,15.50
2010,07,11,00,15,15.50
2010,07,11,00,16,15.50
2010,07,11,00,17,15.50
2010,07,11,00,18,15.50
2010,07,11,00,19,15.50
2010,07,11,00,20,15.50
2010,07,11,00,21,15.50
2010,07,11,00,22,15.40
2010,07,11,00,23,15.40
2010,07,11,00,24,15.40
2010,07,11,00,25,15.40
2010,07,11,00,26,15.40
2010,07,11,00,27,15.40
2010,07,11,00,28,15.40
2010,07,11,00,29,15.40
2010,07,11,00,30,15.40
2010,07,11,00,31,15.40
2010,07,11,00,32,15.40
2010,07,11,00,33,15.40
2010,07,11,00,34,15.40
2010,07,11,00,35,15.40
2010,07,11,00,36,15.50
2010,07,11,00,37,15.50
2010,07,11,00,38,15.50
2010,07,11,00,39,15.50
2010,07,11,00,40,15.50
2010,07,11,00,41,15.50
2010,07,11,00,42,15.50
2010,07,11,00,43,15.60
2010,07,11,00,44,15.60
2010,07,11,00,45,15.60
2010,07,11,00,46,15.60
2010,07,11,00,47,15.60
2010,07,11,00,48,15.60
2010,07,11,00,49,15.60
2010,07,11,00,50,15.60
2010,07,11,00,51,15.60
2010,07,11,00,52,15.70
2010,07,11,00,53,15.70
2010,07,11,00,54,15.70
2010,07,11,00,55,15.70
2010,07,11,00,56,15.70
2010,07,11,00,57,15.80
2010,07,11,00,58,15.80
2010,07,11,00,59,15.80
2010,07,11,01,00,15.80
2010,07,11,01,01,15.80
2010,07,11,01,02,15.80
2010,07,11,01,03,15.90
2010,07,11,01,04,15.90
2010,07,11,01,05,15.90
2010,07,11,01,06,15.90
2010,07,11,01,07,15.90
2010,07,11,01,08,15.90
2010,07,11,01,09,15.90
2010,07,11,01,10,15.90
2010,07,11,01,11,15.90
2010,07,11,01,12,15.90
2010,07,11,01,13,16.00
2010,07,11,01,14,16.00
2010,07,11,01,15,16.00
2010,07,11,01,16,16.00
2010,07,11,01,17,16.00
2010,07,11,01,18,16.00
2010,07,11,01,19,16.00
2010,07,11,01,20,16.10
2010,07,11,01,21,16.10
2010,07,11,01,22,16.10
2010,07,11,01,23,16.10
2010,07,11,01,24,16.10
2010,07,11,01,25,16.10
2010,07,11,01,26,16.10
2010,07,11,01,27,16.10
2010,07,11,01,28,16.10
2010,07,11,01,29,16.10
2010,07,11,01,30,16.10
2010,07,11,01,31,16.10
2010,07,11,01,32,16.10
2010,07,11,01,33,16.10
2010,07,11,01,34,16.10
2010,07,11,01,35,16.10
2010,07,11,01,36,16.10
2010,07,11,01,37,16.10
2010,07,11,01,38,16.10
2010,07,11,01,39,16.10
2010,07,11,01,40,16.10
2010,07,11,01,41,16.10
2010,07,11,01,42,16.10
2010,07,11,01,43,16.10
2010,07,11,01,44,16.10
2010,07,11,01,45,16.10
2010,07,11,01,46,16.10
2010,07,11,01,47,16.10
2010,07,11,01,48,16.10
2010,07,11,01,49,16.10
2010,07,11,01,50,16.10
2010,07,11,01,51,16.10
2010,07,11,01,52,16.10
2010,07,11,01,53,16.10
2010,07,11,01,54,16.10
2010,07,11,01,55,16.10
2010,07,11,01,56,16.10
2010,07,11,01,57,16.10
2010,07,11,01,58,16.10
2010,07,11,01,59,16.10
2010,07,11,02,00,16.10
2010,07,11,02,01,16.10
2010,07,11,02,02,16.00
2010,07,11,02,03,16.00
2010,07,11,02,04,15.90
2010,07,11,02,05,15.90
2010,07,11,02,06,15.90
2010,07,11,02,07,15.80
2010,07,11,02,08,15.80
2010,07,11,02,09,15.80
2010,07,11,02,10,15.70
2010,07,11,02,11,15.70
2010,07,11,02,12,15.60
2010,07,11,02,13,15.60
2010,07,11,02,14,15.60
2010,07,11,02,15,15.50
2010,07,11,02,16,15.50
2010,07,11,02,17,15.40
2010,07,11,02,18,15.40
2010,07,11,02,19,15.40
2010,07,11,02,20,15.40
2010,07,11,02,21,15.40
2010,07,11,02,22,15.30
2010,07,11,02,23,15.30
2010,07,11,02,24,15.30
2010,07,11,02,25,15.30
2010,07,11,02,26,15.20
2010,07,11,02,27,15.20
2010,07,11,02,28,15.20
2010,07,11,02,29,15.20
2010,07,11,02,30,15.10
2010,07,11,02,31,15.10
2010,07,11,02,32,15.10
2010,07,11,02,33,15.10
2010,07,11,02,34,15.10
2010,07,11,02,35,15.10
2010,07,11,02,36,15.00
2010,07,11,02,37,15.00
2010,07,11,02,38,15.00
2010,07,11,02,39,15.00
2010,07,11,02,40,15.00
2010,07,11,02,41,15.00
2010,07,11,02,42,15.00
2010,07,11,02,43,15.00
2010,07,11,02,44,15.00
2010,07,11,02,45,15.00
2010,07,11,02,46,15.00
2010,07,11,02,47,15.00
2010,07,11,02,48,15.00
2010,07,11,02,49,15.00
2010,07,11,02,50,15.00
2010,07,11,02,51,14.90
2010,07,11,02,52,14.90
2010,07,11,02,53,14.80
2010,07,11,02,54,14.80
2010,07,11,02,55,14.80
2010,07,11,02,56,14.80
2010,07,11,02,57,14.70
2010,07,11,02,58,14.70
2010,07,11,02,59,14.70
2010,07,11,03,00,14.70
2010,07,11,03,01,14.70
2010,07,11,03,02,14.60
2010,07,11,03,03,14.60
2010,07,11,03,04,14.60
2010,07,11,03,05,14.60
2010,07,11,03,06,14.60
2010,07,11,03,07,14.60
2010,07,11,03,08,14.60
2010,07,11,03,09,14.60
2010,07,11,03,10,14.60
2010,07,11,03,11,14.60
2010,07,11,03,12,14.60
2010,07,11,03,13,14.60
2010,07,11,03,14,14.60
2010,07,11,03,15,14.50
2010,07,11,03,16,14.50
2010,07,11,03,17,14.50
2010,07,11,03,18,14.50
2010,07,11,03,19,14.50
2010,07,11,03,20,14.40
2010,07,11,03,21,14.40
2010,07,11,03,22,14.40
2010,07,11,03,23,14.40
2010,07,11,03,24,14.40
2010,07,11,03,25,14.40
2010,07,11,03,26,14.40
2010,07,11,03,27,14.40
2010,07,11,03,28,14.40
2010,07,11,03,29,14.40
2010,07,11,03,30,14.40
2010,07,11,03,31,14.30
2010,07,11,03,32,14.30
2010,07,11,03,33,14.20
2010,07,11,03,34,14.20
2010,07,11,03,35,14.10
2010,07,11,03,36,14.10
2010,07,11,03,37,14.10
2010,07,11,03,38,14.00
2010,07,11,03,39,14.00
2010,07,11,03,40,13.90
2010,07,11,03,41,13.90
2010,07,11,03,42,13.90
2010,07,11,03,43,13.90
2010,07,11,03,44,13.90
2010,07,11,03,45,13.90
2010,07,11,03,46,13.90
2010,07,11,03,47,13.90
2010,07,11,03,48,13.90
2010,07,11,03,49,13.90
2010,07,11,03,50,13.90
2010,07,11,03,51,13.90
2010,07,11,03,52,13.90
2010,07,11,03,53,13.90
2010,07,11,03,54,13.90
2010,07,11,03,55,13.90
2010,07,11,03,56,13.90
2010,07,11,03,57,14.00
2010,07,11,03,58,14.00
2010,07,11,03,59,14.00
2010,07,11,04,00,14.00
2010,07,11,04,01,13.90
2010,07,11,04,02,13.90
2010,07,11,04,03,13.90
2010,07,11,04,04,13.90
2010,07,11,04,05,13.90
2010,07,11,04,06,13.90
2010,07,11,04,07,13.90
2010,07,11,04,08,13.90
2010,07,11,04,09,13.90
2010,07,11,04,10,13.80
2010,07,11,04,11,13.80
2010,07,11,04,12,13.80
2010,07,11,04,13,13.80
2010,07,11,04,14,13.80
2010,07,11,04,15,13.70
2010,07,11,04,16,13.70
2010,07,11,04,17,13.70
2010,07,11,04,18,13.60
2010,07,11,04,19,13.60
2010,07,11,04,20,13.60
2010,07,11,04,21,13.60
2010,07,11,04,22,13.50
2010,07,11,04,23,13.50
2010,07,11,04,24,13.50
2010,07,11,04,25,13.40
2010,07,11,04,26,13.40
2010,07,11,04,27,13.40
2010,07,11,04,28,13.40
2010,07,11,04,29,13.40
2010,07,11,04,30,13.30
2010,07,11,04,31,13.30
2010,07,11,04,32,13.30
2010,07,11,04,33,13.30
2010,07,11,04,34,13.30
2010,07,11,04,35,13.30
2010,07,11,04,36,13.20
2010,07,11,04,37,13.20
2010,07,11,04,38,13.20
2010,07,11,04,39,13.20
2010,07,11,04,40,13.20
2010,07,11,04,41,13.20
2010,07,11,04,42,13.20
2010,07,11,04,43,13.10
2010,07,11,04,44,13.10
2010,07,11,04,45,13.10
2010,07,11,04,46,13.10
2010,07,11,04,47,13.10
2010,07,11,04,48,13.10
2010,07,11,04,49,13.10
2010,07,11,04,50,13.10
2010,07,11,04,51,13.10
2010,07,11,04,52,13.10
2010,07,11,04,53,13.10
2010,07,11,04,54,13.10
2010,07,11,04,55,13.10
2010,07,11,04,56,13.10
2010,07,11,04,57,13.10
2010,07,11,04,58,13.10
2010,07,11,04,59,13.10
2010,07,11,05,00,13.00
2010,07,11,05,01,13.00
2010,07,11,05,02,13.00
2010,07,11,05,03,13.00
2010,07,11,05,04,12.90
2010,07,11,05,05,12.90
2010,07,11,05,06,12.90
2010,07,11,05,07,12.90
2010,07,11,05,08,12.90
2010,07,11,05,09,12.90
2010,07,11,05,10,12.90
2010,07,11,05,11,12.90
2010,07,11,05,12,12.80
2010,07,11,05,13,12.80
2010,07,11,05,14,12.80
2010,07,11,05,15,12.80
2010,07,11,05,16,12.80
2010,07,11,05,17,12.80
2010,07,11,05,18,12.80
2010,07,11,05,19,12.80
2010,07,11,05,20,12.80
2010,07,11,05,21,12.80
2010,07,11,05,22,12.80
2010,07,11,05,23,12.80
2010,07,11,05,24,12.80
2010,07,11,05,25,12.80
2010,07,11,05,26,12.70
2010,07,11,05,27,12.70
2010,07,11,05,28,12.70
2010,07,11,05,29,12.70
2010,07,11,05,30,12.70
2010,07,11,05,31,12.70
2010,07,11,05,32,12.70
2010,07,11,05,33,12.70
2010,07,11,05,34,12.70
2010,07,11,05,35,12.70
2010,07,11,05,36,12.70
2010,07,11,05,37,12.70
2010,07,11,05,38,12.70
2010,07,11,05,39,12.70
2010,07,11,05,40,12.70
2010,07,11,05,41,12.70
2010,07,11,05,42,12.70
2010,07,11,05,43,12.80
2010,07,11,05,44,12.80
2010,07,11,05,45,12.80
2010,07,11,05,46,12.80
2010,07,11,05,47,12.80
2010,07,11,05,48,12.80
2010,07,11,05,49,12.80
2010,07,11,05,50,12.80
2010,07,11,05,51,12.80
2010,07,11,05,52,12.80
2010,07,11,05,53,12.80
2010,07,11,05,54,12.80
2010,07,11,05,55,12.80
2010,07,11,05,56,12.80
2010,07,11,05,57,12.80
2010,07,11,05,58,12.80
2010,07,11,05,59,12.90
2010,07,11,06,00,12.90
2010,07,11,06,01,12.90
2010,07,11,06,02,12.90
2010,07,11,06,03,12.90
2010,07,11,06,04,13.00
2010,07,11,06,05,13.00
2010,07,11,06,06,13.00
2010,07,11,06,07,13.10
2010,07,11,06,08,13.10
2010,07,11,06,09,13.10
2010,07,11,06,10,13.10
2010,07,11,06,11,13.10
2010,07,11,06,12,13.10
2010,07,11,06,13,13.10
2010,07,11,06,14,13.10
2010,07,11,06,15,13.10
2010,07,11,06,16,13.10
2010,07,11,06,17,13.10
2010,07,11,06,18,13.20
2010,07,11,06,19,13.20
2010,07,11,06,20,13.20
2010,07,11,06,21,13.20
2010,07,11,06,22,13.20
2010,07,11,06,23,13.20
2010,07,11,06,24,13.20
2010,07,11,06,25,13.30
2010,07,11,06,26,13.30
2010,07,11,06,27,13.30
2010,07,11,06,28,13.40
2010,07,11,06,29,13.40
2010,07,11,06,30,13.40
2010,07,11,06,31,13.50
2010,07,11,06,32,13.50
2010,07,11,06,33,13.60
2010,07,11,06,34,13.70
2010,07,11,06,35,13.70
2010,07,11,06,36,13.80
2010,07,11,06,37,13.80
2010,07,11,06,38,13.90
2010,07,11,06,39,13.90
2010,07,11,06,40,14.00
2010,07,11,06,41,14.10
2010,07,11,06,42,14.20
2010,07,11,06,43,14.30
2010,07,11,06,44,14.30
2010,07,11,06,45,14.40
2010,07,11,06,46,14.50
2010,07,11,06,47,14.50
2010,07,11,06,48,14.60
2010,07,11,06,49,14.70
2010,07,11,06,50,14.80
2010,07,11,06,51,14.90
2010,07,11,06,52,15.00
2010,07,11,06,53,15.00
2010,07,11,06,54,15.00
2010,07,11,06,55,15.10
2010,07,11,06,56,15.20
2010,07,11,06,57,15.40
2010,07,11,06,58,15.50
2010,07,11,06,59,15.60
2010,07,11,07,00,15.70
2010,07,11,07,01,15.80
2010,07,11,07,02,16.00
2010,07,11,07,03,16.10
2010,07,11,07,04,16.20
2010,07,11,07,05,16.30
2010,07,11,07,06,16.50
2010,07,11,07,07,16.60
2010,07,11,07,08,16.70
2010,07,11,07,09,16.80
2010,07,11,07,10,16.80
2010,07,11,07,11,16.90
2010,07,11,07,12,16.90
2010,07,11,07,13,16.90
2010,07,11,07,14,16.90
2010,07,11,07,15,16.90
2010,07,11,07,16,16.90
2010,07,11,07,17,16.90
2010,07,11,07,18,16.90
2010,07,11,07,19,16.90
2010,07,11,07,20,16.90
2010,07,11,07,21,16.90
2010,07,11,07,22,16.90
2010,07,11,07,23,17.00
2010,07,11,07,24,17.00
2010,07,11,07,25,17.00
2010,07,11,07,26,17.10
2010,07,11,07,27,17.10
2010,07,11,07,28,17.10
2010,07,11,07,29,17.10
2010,07,11,07,30,17.20
2010,07,11,07,31,17.20
2010,07,11,07,32,17.20
2010,07,11,07,33,17.20
2010,07,11,07,34,17.20
2010,07,11,07,35,17.20
2010,07,11,07,36,17.20
2010,07,11,07,37,17.20
2010,07,11,07,38,17.20
2010,07,11,07,39,17.20
2010,07,11,07,40,17.20
2010,07,11,07,41,17.20
2010,07,11,07,42,17.20
2010,07,11,07,43,17.20
2010,07,11,07,44,17.20
2010,07,11,07,45,17.30
2010,07,11,07,46,17.30
2010,07,11,07,47,17.30
2010,07,11,07,48,17.30
2010,07,11,07,49,17.30
2010,07,11,07,50,17.30
2010,07,11,07,51,17.30
2010,07,11,07,52,17.30
2010,07,11,07,53,17.30
2010,07,11,07,54,17.30
2010,07,11,07,55,17.30
2010,07,11,07,56,17.30
2010,07,11,07,57,17.30
2010,07,11,07,58,17.30
2010,07,11,07,59,17.40
2010,07,11,08,00,17.30
2010,07,11,08,01,17.30
2010,07,11,08,02,17.30
2010,07,11,08,03,17.30
2010,07,11,08,04,17.30
2010,07,11,08,05,17.20
2010,07,11,08,06,17.30
2010,07,11,08,07,17.30
2010,07,11,08,08,17.20
2010,07,11,08,09,17.20
2010,07,11,08,10,17.30
2010,07,11,08,11,17.30
2010,07,11,08,12,17.20
2010,07,11,08,13,17.20
2010,07,11,08,14,17.20
2010,07,11,08,15,17.20
2010,07,11,08,16,17.30
2010,07,11,08,17,17.30
2010,07,11,08,18,17.30
2010,07,11,08,19,17.40
2010,07,11,08,20,17.40
2010,07,11,08,21,17.50
2010,07,11,08,22,17.50
2010,07,11,08,23,17.60
2010,07,11,08,24,17.70
2010,07,11,08,25,17.70
2010,07,11,08,26,17.70
2010,07,11,08,27,17.70
2010,07,11,08,28,17.80
2010,07,11,08,29,17.90
2010,07,11,08,30,17.90
2010,07,11,08,31,18.00
2010,07,11,08,32,18.10
2010,07,11,08,33,18.10
2010,07,11,08,34,18.10
2010,07,11,08,35,18.00
2010,07,11,08,36,17.90
2010,07,11,08,37,17.90
2010,07,11,08,38,17.90
2010,07,11,08,39,17.90
2010,07,11,08,40,17.90
2010,07,11,08,41,18.00
2010,07,11,08,42,18.00
2010,07,11,08,43,18.10
2010,07,11,08,44,18.20
2010,07,11,08,45,18.20
2010,07,11,08,46,18.20
2010,07,11,08,47,18.20
2010,07,11,08,48,18.20
2010,07,11,08,49,18.30
2010,07,11,08,50,18.30
2010,07,11,08,51,18.40
2010,07,11,08,52,18.40
2010,07,11,08,53,18.50
2010,07,11,08,54,18.60
2010,07,11,08,55,18.70
2010,07,11,08,56,18.80
2010,07,11,08,57,18.90
2010,07,11,08,58,18.90
2010,07,11,08,59,18.90
2010,07,11,09,00,19.00
2010,07,11,09,01,19.10
2010,07,11,09,02,19.20
2010,07,11,09,03,19.20
2010,07,11,09,04,19.30
2010,07,11,09,05,19.40
2010,07,11,09,06,19.40
2010,07,11,09,07,19.40
2010,07,11,09,08,19.30
2010,07,11,09,09,19.30
2010,07,11,09,10,19.20
2010,07,11,09,11,19.20
2010,07,11,09,12,19.20
2010,07,11,09,13,19.20
2010,07,11,09,14,19.30
2010,07,11,09,15,19.30
2010,07,11,09,16,19.30
2010,07,11,09,17,19.30
2010,07,11,09,18,19.30
2010,07,11,09,19,19.30
2010,07,11,09,20,19.30
2010,07,11,09,21,19.30
2010,07,11,09,22,19.30
2010,07,11,09,23,19.30
2010,07,11,09,24,19.30
2010,07,11,09,25,19.30
2010,07,11,09,26,19.20
2010,07,11,09,27,19.20
2010,07,11,09,28,19.20
2010,07,11,09,29,19.20
2010,07,11,09,30,19.20
2010,07,11,09,31,19.20
2010,07,11,09,32,19.20
2010,07,11,09,33,19.20
2010,07,11,09,34,19.20
2010,07,11,09,35,19.30
2010,07,11,09,36,19.50
2010,07,11,09,37,19.60
2010,07,11,09,38,19.80
2010,07,11,09,39,19.90
2010,07,11,09,40,19.90
2010,07,11,09,41,19.90
2010,07,11,09,42,19.90
2010,07,11,09,43,20.00
2010,07,11,09,44,20.00
2010,07,11,09,45,20.00
2010,07,11,09,46,20.10
2010,07,11,09,47,20.00
2010,07,11,09,48,20.00
2010,07,11,09,49,19.90
2010,07,11,09,50,19.90
2010,07,11,09,51,19.90
2010,07,11,09,52,19.90
2010,07,11,09,53,19.90
2010,07,11,09,54,19.90
2010,07,11,09,55,19.80
2010,07,11,09,56,19.80
2010,07,11,09,57,19.80
2010,07,11,09,58,19.80
2010,07,11,09,59,19.80
2010,07,11,10,00,19.90
2010,07,11,10,01,20.00
2010,07,11,10,02,20.10
2010,07,11,10,03,20.30
2010,07,11,10,04,20.40
2010,07,11,10,05,20.50
2010,07,11,10,06,20.60
2010,07,11,10,07,20.70
2010,07,11,10,08,20.80
2010,07,11,10,09,20.80
2010,07,11,10,10,20.80
2010,07,11,10,11,20.90
2010,07,11,10,12,21.00
2010,07,11,10,13,21.00
2010,07,11,10,14,21.00
2010,07,11,10,15,21.00
2010,07,11,10,16,21.10
2010,07,11,10,17,21.10
2010,07,11,10,18,21.10
2010,07,11,10,19,21.10
2010,07,11,10,20,21.10
2010,07,11,10,21,21.10
2010,07,11,10,22,21.20
2010,07,11,10,23,21.20
2010,07,11,10,24,21.20
2010,07,11,10,25,21.10
2010,07,11,10,26,21.10
2010,07,11,10,27,21.00
2010,07,11,10,28,20.90
2010,07,11,10,29,20.80
2010,07,11,10,30,20.70
2010,07,11,10,31,20.60
2010,07,11,10,32,20.50
2010,07,11,10,33,20.50
2010,07,11,10,34,20.40
2010,07,11,10,35,20.30
2010,07,11,10,36,20.30
2010,07,11,10,37,20.30
2010,07,11,10,38,20.30
2010,07,11,10,39,20.30
2010,07,11,10,40,20.30
2010,07,11,10,41,20.30
2010,07,11,10,42,20.30
2010,07,11,10,43,20.30
2010,07,11,10,44,20.30
2010,07,11,10,45,20.20
2010,07,11,10,46,20.30
2010,07,11,10,47,20.30
2010,07,11,10,48,20.30
2010,07,11,10,49,20.30
2010,07,11,10,50,20.40
2010,07,11,10,51,20.40
2010,07,11,10,52,20.50
2010,07,11,10,53,20.50
2010,07,11,10,54,20.30
2010,07,11,10,55,20.20
2010,07,11,10,56,20.20
2010,07,11,10,57,20.20
2010,07,11,10,58,20.30
2010,07,11,10,59,20.30
2010,07,11,11,00,20.40
2010,07,11,11,01,20.50
2010,07,11,11,02,20.60
2010,07,11,11,03,20.50
2010,07,11,11,04,20.40
2010,07,11,11,05,20.40
2010,07,11,11,06,20.40
2010,07,11,11,07,20.40
2010,07,11,11,08,20.50
2010,07,11,11,09,20.70
2010,07,11,11,10,20.80
2010,07,11,11,11,20.90
2010,07,11,11,12,21.00
2010,07,11,11,13,21.10
2010,07,11,11,14,21.10
2010,07,11,11,15,21.10
2010,07,11,11,16,21.10
2010,07,11,11,17,21.10
2010,07,11,11,18,21.10
2010,07,11,11,19,21.00
2010,07,11,11,20,21.10
2010,07,11,11,21,21.00
2010,07,11,11,22,20.90
2010,07,11,11,23,20.90
2010,07,11,11,24,20.90
2010,07,11,11,25,20.90
2010,07,11,11,26,20.80
2010,07,11,11,27,20.80
2010,07,11,11,28,20.70
2010,07,11,11,29,20.70
2010,07,11,11,30,20.70
2010,07,11,11,31,20.70
2010,07,11,11,32,20.70
2010,07,11,11,33,20.80
2010,07,11,11,34,20.90
2010,07,11,11,35,20.90
2010,07,11,11,36,20.80
2010,07,11,11,37,20.80
2010,07,11,11,38,20.70
2010,07,11,11,39,20.60
2010,07,11,11,40,20.50
2010,07,11,11,41,20.50
2010,07,11,11,42,20.60
2010,07,11,11,43,20.60
2010,07,11,11,44,20.60
2010,07,11,11,45,20.60
2010,07,11,11,46,20.50
2010,07,11,11,47,20.30
2010,07,11,11,48,20.40
2010,07,11,11,49,20.30
2010,07,11,11,50,20.30
2010,07,11,11,51,20.40
2010,07,11,11,52,20.50
2010,07,11,11,53,20.70
2010,07,11,11,54,20.80
2010,07,11,11,55,20.90
2010,07,11,11,56,20.90
2010,07,11,11,57,20.80
2010,07,11,11,58,20.70
2010,07,11,11,59,20.60
2010,07,11,12,00,20.50
2010,07,11,12,01,20.30
2010,07,11,12,02,20.10
2010,07,11,12,03,19.90
2010,07,11,12,04,19.80
2010,07,11,12,05,19.70
2010,07,11,12,06,19.60
2010,07,11,12,07,19.50
2010,07,11,12,08,19.40
2010,07,11,12,09,19.30
2010,07,11,12,10,19.20
2010,07,11,12,11,19.20
2010,07,11,12,12,19.30
2010,07,11,12,13,19.30
2010,07,11,12,14,19.50
2010,07,11,12,15,19.50
2010,07,11,12,16,19.50
2010,07,11,12,17,19.50
2010,07,11,12,18,19.60
2010,07,11,12,19,19.60
2010,07,11,12,20,19.50
2010,07,11,12,21,19.40
2010,07,11,12,22,19.30
2010,07,11,12,23,19.40
2010,07,11,12,24,19.50
2010,07,11,12,25,19.50
2010,07,11,12,26,19.50
2010,07,11,12,27,19.40
2010,07,11,12,28,19.40
2010,07,11,12,29,19.40
2010,07,11,12,30,19.50
2010,07,11,12,31,19.60
2010,07,11,12,32,19.70
2010,07,11,12,33,19.60
2010,07,11,12,34,19.70
2010,07,11,12,35,19.70
2010,07,11,12,36,19.50
2010,07,11,12,37,19.40
2010,07,11,12,38,19.40
2010,07,11,12,39,19.30
2010,07,11,12,40,19.40
2010,07,11,12,41,19.50
2010,07,11,12,42,19.60
2010,07,11,12,43,19.60
2010,07,11,12,44,19.60
2010,07,11,12,45,19.50
2010,07,11,12,46,19.50
2010,07,11,12,47,19.70
2010,07,11,12,48,19.90
2010,07,11,12,49,20.00
2010,07,11,12,50,20.10
2010,07,11,12,51,20.00
2010,07,11,12,52,19.80
2010,07,11,12,53,19.80
2010,07,11,12,54,19.80
2010,07,11,12,55,19.90
2010,07,11,12,56,20.00
2010,07,11,12,57,20.10
2010,07,11,12,58,20.10
2010,07,11,12,59,20.00
2010,07,11,13,00,19.90
2010,07,11,13,01,19.90
2010,07,11,13,02,19.80
2010,07,11,13,03,19.80
2010,07,11,13,04,19.70
2010,07,11,13,05,19.50
2010,07,11,13,06,19.50
2010,07,11,13,07,19.40
2010,07,11,13,08,19.30
2010,07,11,13,09,19.40
2010,07,11,13,10,19.40
2010,07,11,13,11,19.50
2010,07,11,13,12,19.60
2010,07,11,13,13,19.70
2010,07,11,13,14,19.80
2010,07,11,13,15,19.90
2010,07,11,13,16,19.90
2010,07,11,13,17,19.90
2010,07,11,13,18,20.00
2010,07,11,13,19,20.10
2010,07,11,13,20,20.20
2010,07,11,13,21,20.20
2010,07,11,13,22,20.20
2010,07,11,13,23,20.30
2010,07,11,13,24,20.40
2010,07,11,13,25,20.40
2010,07,11,13,26,20.50
2010,07,11,13,27,20.50
2010,07,11,13,28,20.50
2010,07,11,13,29,20.60
2010,07,11,13,30,20.70
2010,07,11,13,31,20.80
2010,07,11,13,32,20.90
2010,07,11,13,33,20.90
2010,07,11,13,34,21.00
2010,07,11,13,35,21.00
2010,07,11,13,36,21.10
2010,07,11,13,37,21.10
2010,07,11,13,38,21.20
2010,07,11,13,39,21.30
2010,07,11,13,40,21.40
2010,07,11,13,41,21.40
2010,07,11,13,42,21.40
2010,07,11,13,43,21.30
2010,07,11,13,44,21.30
2010,07,11,13,45,21.30
2010,07,11,13,46,21.30
2010,07,11,13,47,21.20
2010,07,11,13,48,21.10
2010,07,11,13,49,21.00
2010,07,11,13,50,20.90
2010,07,11,13,51,21.00
2010,07,11,13,52,21.20
2010,07,11,13,53,21.30
2010,07,11,13,54,21.50
2010,07,11,13,55,21.60
2010,07,11,13,56,21.60
2010,07,11,13,57,21.70
2010,07,11,13,58,21.80
2010,07,11,13,59,21.90
2010,07,11,14,00,22.00
2010,07,11,14,01,22.10
2010,07,11,14,02,22.10
2010,07,11,14,03,22.10
2010,07,11,14,04,22.10
2010,07,11,14,05,22.10
2010,07,11,14,06,22.20
2010,07,11,14,07,22.40
2010,07,11,14,08,22.50
2010,07,11,14,09,22.60
2010,07,11,14,10,22.60
2010,07,11,14,11,22.50
2010,07,11,14,12,22.40
2010,07,11,14,13,22.30
2010,07,11,14,14,22.30
2010,07,11,14,15,22.30
2010,07,11,14,16,22.20
2010,07,11,14,17,22.30
2010,07,11,14,18,22.40
2010,07,11,14,19,22.40
2010,07,11,14,20,22.50
2010,07,11,14,21,22.50
2010,07,11,14,22,22.40
2010,07,11,14,23,22.40
2010,07,11,14,24,22.30
2010,07,11,14,25,22.20
2010,07,11,14,26,22.20
2010,07,11,14,27,22.20
2010,07,11,14,28,22.30
2010,07,11,14,29,22.40
2010,07,11,14,30,22.50
2010,07,11,14,31,22.60
2010,07,11,14,32,22.70
2010,07,11,14,33,22.80
2010,07,11,14,34,22.80
2010,07,11,14,35,22.80
2010,07,11,14,36,22.70
2010,07,11,14,37,22.70
2010,07,11,14,38,22.60
2010,07,11,14,39,22.40
2010,07,11,14,40,22.40
2010,07,11,14,41,22.40
2010,07,11,14,42,22.40
2010,07,11,14,43,22.40
2010,07,11,14,44,22.40
2010,07,11,14,45,22.60
2010,07,11,14,46,22.60
2010,07,11,14,47,22.60
2010,07,11,14,48,22.60
2010,07,11,14,49,22.60
2010,07,11,14,50,22.60
2010,07,11,14,51,22.60
2010,07,11,14,52,22.70
2010,07,11,14,53,22.70
2010,07,11,14,54,22.70
2010,07,11,14,55,22.60
2010,07,11,14,56,22.50
2010,07,11,14,57,22.50
2010,07,11,14,58,22.40
2010,07,11,14,59,22.50
2010,07,11,15,00,22.50
2010,07,11,15,01,22.60
2010,07,11,15,02,22.80
2010,07,11,15,03,22.90
2010,07,11,15,04,23.10
2010,07,11,15,05,23.20
2010,07,11,15,06,23.20
2010,07,11,15,07,23.30
2010,07,11,15,08,23.40
2010,07,11,15,09,23.40
2010,07,11,15,10,23.40
2010,07,11,15,11,23.50
2010,07,11,15,12,23.60
2010,07,11,15,13,23.60
2010,07,11,15,14,23.70
2010,07,11,15,15,23.70
2010,07,11,15,16,23.70
2010,07,11,15,17,23.80
2010,07,11,15,18,23.80
2010,07,11,15,19,23.80
2010,07,11,15,20,23.90
2010,07,11,15,21,23.80
2010,07,11,15,22,23.80
2010,07,11,15,23,23.80
2010,07,11,15,24,23.80
2010,07,11,15,25,23.70
2010,07,11,15,26,23.60
2010,07,11,15,27,23.40
2010,07,11,15,28,23.30
2010,07,11,15,29,23.20
2010,07,11,15,30,23.10
2010,07,11,15,31,23.10
2010,07,11,15,32,23.30
2010,07,11,15,33,23.40
2010,07,11,15,34,23.40
2010,07,11,15,35,23.50
2010,07,11,15,36,23.50
2010,07,11,15,37,23.50
2010,07,11,15,38,23.50
2010,07,11,15,39,23.40
2010,07,11,15,40,23.40
2010,07,11,15,41,23.40
2010,07,11,15,42,23.40
2010,07,11,15,43,23.30
2010,07,11,15,44,23.40
2010,07,11,15,45,23.40
2010,07,11,15,46,23.50
2010,07,11,15,47,23.50
2010,07,11,15,48,23.60
2010,07,11,15,49,23.60
2010,07,11,15,50,23.60
2010,07,11,15,51,23.60
2010,07,11,15,52,23.70
2010,07,11,15,53,23.70
2010,07,11,15,54,23.80
2010,07,11,15,55,23.90
2010,07,11,15,56,23.80
2010,07,11,15,57,23.90
2010,07,11,15,58,23.90
2010,07,11,15,59,24.00
2010,07,11,16,00,24.00
2010,07,11,16,01,24.10
2010,07,11,16,02,24.10
2010,07,11,16,03,24.10
2010,07,11,16,04,24.10
2010,07,11,16,05,23.90
2010,07,11,16,06,23.90
2010,07,11,16,07,23.80
2010,07,11,16,08,23.80
2010,07,11,16,09,23.70
2010,07,11,16,10,23.50
2010,07,11,16,11,23.40
2010,07,11,16,12,23.30
2010,07,11,16,13,23.30
2010,07,11,16,14,23.30
2010,07,11,16,15,23.30
2010,07,11,16,16,23.40
2010,07,11,16,17,23.40
2010,07,11,16,18,23.40
2010,07,11,16,19,23.50
2010,07,11,16,20,23.60
2010,07,11,16,21,23.70
2010,07,11,16,22,23.70
2010,07,11,16,23,23.70
2010,07,11,16,24,23.70
2010,07,11,16,25,23.70
2010,07,11,16,26,23.70
2010,07,11,16,27,23.80
2010,07,11,16,28,23.80
2010,07,11,16,29,23.90
2010,07,11,16,30,23.90
2010,07,11,16,31,24.00
2010,07,11,16,32,24.00
2010,07,11,16,33,24.00
2010,07,11,16,34,23.90
2010,07,11,16,35,23.80
2010,07,11,16,36,23.70
2010,07,11,16,37,23.70
2010,07,11,16,38,23.70
2010,07,11,16,39,23.70
2010,07,11,16,40,23.80
2010,07,11,16,41,23.80
2010,07,11,16,42,23.80
2010,07,11,16,43,23.80
2010,07,11,16,44,23.90
2010,07,11,16,45,23.90
2010,07,11,16,46,23.90
2010,07,11,16,47,23.80
2010,07,11,16,48,23.70
2010,07,11,16,49,23.70
2010,07,11,16,50,23.70
2010,07,11,16,51,23.70
2010,07,11,16,52,23.60
2010,07,11,16,53,23.60
2010,07,11,16,54,23.60
2010,07,11,16,55,23.60
2010,07,11,16,56,23.60
2010,07,11,16,57,23.60
2010,07,11,16,58,23.60
2010,07,11,16,59,23.50
2010,07,11,17,00,23.50
2010,07,11,17,01,23.40
2010,07,11,17,02,23.40
2010,07,11,17,03,23.40
2010,07,11,17,04,23.40
2010,07,11,17,05,23.40
2010,07,11,17,06,23.50
2010,07,11,17,07,23.60
2010,07,11,17,08,23.60
2010,07,11,17,09,23.60
2010,07,11,17,10,23.60
2010,07,11,17,11,23.60
2010,07,11,17,12,23.50
2010,07,11,17,13,23.40
2010,07,11,17,14,23.40
2010,07,11,17,15,23.50
2010,07,11,17,16,23.50
2010,07,11,17,17,23.60
2010,07,11,17,18,23.50
2010,07,11,17,19,23.50